User: anonymous   Login
Location: Caltech
(34.1382°N, 118.1253°W)
Time: 17:59:28
(UTC-07:00)
Language:

HO-68 - Orbit

View from above orbital plane
View from above orbital plane
View from above satellite
View from above satellite

Ground track
Ground track

The orbit data is extracted from the following two-line orbital elements,

1 36122U 09072B   16125.35526110 -.00000059  00000-0 -43517-4 0  9990
2 36122 100.1475 162.9804 0008214  97.4959 262.6927 13.16333935306844
Epoch (UTC): 04 May 2016 08:31:34
Eccentricity: 0.0008214
inclination: 100.1475°
perigee height: 1192 km
apogee height: 1205 km
right ascension of ascending node: 162.9804°
argument of perigee: 97.4959°
revolutions per day: 13.16333935
mean anomaly at epoch: 262.6927°
orbit number at epoch: 30684

The dashed part of the orbit path shows where the satellite is in the earth's shadow,  

DLR